Theta_e
323 325 325 325 325 325 325 325 325 325 325 326 326 327 327 326 322 305 300 309 312 329 324 305 302 301 301 301 300 297 291 287 287 288 291 292 291 290 290 289 287 289 289 290 291
321 321 324 325 325 325 325 324 324 324 324 325 325 326 326 324 304 301 317 324 328 328 302 301 299 300 298 297 297 293 289 290 291 291 291 292 292 291 290 287 286 286 288 289 289
319 320 321 324 324 325 325 324 323 324 324 324 324 325 324 318 301 299 324 326 326 323 304 301 300 299 295 295 293 291 288 292 293 294 293 292 290 291 289 287 288 286 287 287 286
318 318 319 322 323 324 325 325 323 323 324 324 324 324 321 307 292 303 325 325 322 309 302 299 299 295 293 292 294 292 293 293 295 295 293 291 291 290 290 291 290 289 289 286 285
318 317 317 320 322 323 324 324 323 322 323 324 324 323 310 301 300 307 319 314 303 303 299 298 296 294 291 291 292 292 292 293 294 294 292 292 291 291 289 288 288 288 287 286 285
319 319 318 319 321 322 323 323 323 322 322 324 323 321 306 296 306 305 302 302 301 301 298 298 295 296 293 293 292 291 292 293 294 293 292 291 289 290 289 286 286 287 286 285 285
319 319 319 319 320 321 322 322 322 321 322 323 324 313 300 300 304 304 304 299 299 299 298 297 297 296 294 290 294 291 290 290 290 291 291 291 288 289 288 286 285 285 284 285 284
318 318 319 319 320 320 321 322 321 321 322 323 323 307 298 305 304 304 301 300 301 300 299 299 298 297 293 293 292 288 288 286 289 291 290 289 286 291 288 286 284 283 283 284 285
317 317 319 320 319 319 320 320 319 321 322 322 308 302 297 310 303 304 299 299 299 299 298 302 298 293 292 289 287 286 284 283 287 291 289 288 286 290 286 285 285 284 284 285 285
317 317 319 319 319 319 320 319 317 316 313 309 305 299 298 298 303 303 299 299 297 297 298 297 293 290 288 287 281 284 282 283 284 287 287 286 287 291 287 285 286 285 284 284 285
316 316 319 319 320 320 313 300 299 295 298 296 294 296 298 303 303 300 298 298 297 295 293 292 290 287 288 289 288 287 283 282 283 287 286 286 287 291 291 285 285 284 283 284 285
316 317 318 319 319 319 301 296 296 296 293 296 296 297 301 301 296 298 298 294 293 290 290 289 287 290 291 289 286 284 282 282 285 285 286 285 285 288 291 288 287 287 284 284 285
315 316 317 319 317 305 298 297 304 300 291 293 298 298 299 301 296 296 296 293 290 289 289 287 289 291 289 286 285 283 282 282 283 283 283 281 280 283 287 287 287 287 288 286 285
315 314 317 316 305 297 299 303 303 300 282 287 293 297 299 297 293 296 295 293 290 289 289 289 289 288 286 286 286 282 284 283 282 280 278 282 279 281 287 287 285 286 284 285 284
315 314 317 312 304 296 302 303 301 293 274 288 294 299 296 292 291 292 294 292 289 290 289 289 286 285 285 286 286 284 283 281 280 278 275 277 275 279 280 283 288 288 285 285 283
315 314 316 306 301 298 302 299 294 283 276 285 293 292 291 292 291 292 291 293 290 289 287 288 287 286 286 285 285 285 282 280 277 276 272 279 278 277 279 283 284 284 283 283 282
315 314 311 306 301 300 301 294 283 277 285 285 289 290 288 289 289 290 288 287 286 284 284 285 285 285 287 284 284 282 281 277 274 272 276 276 274 283 284 286 286 286 283 281 280
315 314 311 308 302 301 294 289 279 282 283 289 291 289 287 289 288 288 286 285 287 286 282 282 282 284 286 286 284 281 283 278 270 270 278 275 275 282 284 286 283 280 280 281 278
314 308 307 307 303 301 289 281 282 285 286 288 288 286 286 288 288 286 285 285 288 289 287 282 282 282 283 283 284 281 279 281 277 263 268 278 279 282 284 282 281 279 280 280 277
309 307 306 308 305 301 287 286 285 290 289 290 285 287 283 286 285 285 285 286 288 290 289 287 283 281 280 281 279 280 282 277 276 270 266 276 277 281 285 285 284 279 278 279 277
307 300 301 306 305 298 288 286 287 292 291 289 286 284 286 285 286 283 285 287 289 287 288 287 286 281 280 279 279 277 277 277 279 276 271 269 279 282 285 286 285 282 280 279 278
305 294 300 307 295 294 288 287 292 289 292 291 289 288 286 288 286 285 285 290 291 288 286 287 285 283 283 277 278 279 280 281 278 275 271 272 280 284 285 285 284 281 281 278 278
300 299 302 305 287 289 287 287 291 288 290 289 288 290 290 287 285 286 289 290 289 289 286 286 283 277 279 278 278 277 279 280 279 278 275 273 280 283 283 282 281 279 279 278 277
299 291 295 297 296 290 288 287 287 291 291 289 288 290 286 287 290 287 285 287 288 289 293 292 284 282 281 282 280 277 278 280 282 279 279 279 282 287 289 289 291 286 279 278 277
300 294 295 288 291 292 291 288 287 286 290 291 288 289 288 285 287 286 288 285 284 287 285 287 283 284 286 287 280 280 281 280 278 281 279 283 282 286 289 290 291 292 285 278 276
301 296 296 293 293 292 292 289 287 288 287 286 287 287 289 287 287 285 288 287 288 280 282 282 283 284 282 285 282 281 284 284 280 282 281 282 282 290 293 293 292 291 289 279 277
308 304 298 294 292 290 289 290 290 292 292 292 291 289 288 289 292 293 292 290 290 287 279 277 279 274 279 283 279 276 282 285 286 287 284 279 285 290 289 289 290 290 284 281 279
Wind_Speed
19 20 20 20 19 19 18 16 16 17 14 12 10 9 9 10 4 4 2 3 3 9 4 4 2 4 3 4 3 3 5 2 7 7 6 6 5 1 1 6 1 2 4 4 11
19 19 20 21 20 18 17 16 16 16 15 13 11 8 8 8 2 4 1 4 6 5 2 5 3 3 4 3 3 5 4 6 5 5 4 4 4 9 5 3 3 1 2 5 8
19 19 20 22 22 20 17 15 14 14 15 14 11 7 6 5 2 2 1 6 7 1 2 1 2 3 4 1 3 1 3 2 3 4 4 4 4 6 7 5 9 11 14 8 5
18 20 21 22 22 23 21 18 15 13 14 13 10 8 6 1 3 1 4 4 4 4 2 3 6 4 3 2 2 2 1 2 1 2 2 2 6 4 9 4 2 8 15 8 9
17 19 21 23 23 24 23 21 18 15 14 11 8 7 2 1 6 2 3 5 2 2 5 3 5 1 1 1 2 2 1 2 3 4 4 4 4 8 9 2 4 11 11 12 10
15 15 18 18 20 23 23 23 20 16 16 11 6 6 2 4 3 3 2 2 4 4 3 6 4 3 3 1 1 0 2 4 5 4 3 4 3 3 1 7 8 13 13 9 10
16 16 17 18 20 22 24 24 21 17 14 7 2 2 1 9 1 3 5 2 2 2 4 2 2 4 2 1 3 1 5 6 4 3 4 5 6 12 4 7 9 10 9 9 11
17 16 17 19 21 23 25 26 22 18 9 2 2 1 7 1 1 2 1 3 4 4 5 3 2 6 3 1 6 4 4 5 2 6 2 4 11 8 8 12 12 11 9 12 14
17 16 17 18 20 23 26 28 21 8 1 3 2 4 8 4 1 1 2 4 3 3 4 3 5 4 4 4 5 6 4 3 9 7 3 6 11 6 6 9 10 13 14 14 11
17 17 16 18 20 22 28 25 9 2 1 1 1 3 1 3 1 2 3 3 3 3 3 6 6 3 4 4 4 5 4 5 7 3 4 5 18 16 8 11 18 15 14 15 15
15 16 14 17 19 22 14 7 7 5 5 6 4 3 0 0 1 1 2 3 2 2 5 3 3 7 10 8 3 3 4 8 6 5 4 9 14 22 9 11 16 14 15 17 20
14 12 12 16 18 21 2 4 2 2 9 2 4 5 2 1 2 3 3 5 4 7 4 3 10 7 4 4 4 3 4 9 8 1 6 11 16 15 19 12 15 16 17 20 16
13 12 12 15 19 4 3 2 2 1 2 9 4 3 3 6 6 5 8 4 5 6 7 8 3 6 5 4 4 5 6 5 7 5 5 8 9 8 8 6 7 10 12 16 20
11 13 12 16 2 3 2 5 3 2 4 9 3 3 2 2 3 2 5 4 2 10 8 7 2 7 4 6 9 5 5 3 4 5 5 4 14 4 9 12 7 9 12 15 17
7 11 9 4 4 1 1 2 3 3 5 6 3 1 2 4 2 1 2 2 5 6 7 9 8 5 5 8 8 7 2 2 1 2 3 5 6 8 3 9 21 10 13 13 16
8 7 6 0 1 3 3 3 2 6 10 4 3 5 5 3 2 2 1 5 1 4 2 7 2 6 7 2 3 4 2 4 4 2 2 7 9 5 7 11 9 6 6 9 11
9 8 4 3 2 1 0 3 3 7 4 5 6 4 2 6 5 7 7 6 8 5 7 2 6 2 3 4 2 3 6 5 6 3 11 4 3 13 8 14 11 10 7 9 9
10 5 5 2 2 2 3 5 10 8 8 3 3 2 6 8 4 4 5 5 8 2 4 6 10 9 6 7 8 7 9 8 9 5 15 1 12 10 13 11 7 7 8 7 9
8 2 3 4 5 2 4 7 10 10 8 8 3 4 5 3 3 5 9 6 8 12 11 7 9 2 2 2 3 5 6 2 4 3 4 7 10 8 10 12 9 10 7 10 10
4 3 5 10 8 2 3 20 9 9 8 6 14 11 10 8 8 8 9 5 6 15 2 5 6 1 1 2 3 4 4 5 2 4 8 13 17 15 14 11 11 8 10 9 8
4 3 3 13 7 3 13 11 6 7 5 8 8 6 9 9 8 8 8 4 7 5 4 5 3 1 4 11 13 4 4 1 2 6 7 6 16 6 8 10 11 10 11 10 12
4 5 5 12 8 6 17 7 7 6 7 8 5 11 12 11 10 11 13 14 12 10 12 8 5 9 16 2 4 3 8 11 8 8 3 3 31 3 6 8 8 8 10 8 10
5 6 4 8 11 16 4 5 10 9 13 14 12 9 6 9 8 11 14 5 10 11 13 11 5 4 9 3 2 8 9 6 2 1 13 8 29 4 7 7 9 9 9 9 10
5 5 3 8 7 15 15 10 11 6 21 6 5 9 4 15 19 10 6 4 7 8 3 14 8 13 20 13 7 7 12 17 22 17 13 34 31 47 19 23 27 14 11 12 13
5 6 7 9 16 18 12 6 21 10 8 11 11 24 18 10 18 21 17 2 1 1 1 9 14 13 24 29 6 8 17 17 22 31 21 35 29 45 26 27 30 15 9 9 12
8 5 5 5 10 23 23 24 30 19 9 9 20 8 21 27 26 25 18 6 11 3 8 5 14 12 23 23 10 10 35 17 25 33 24 31 40 35 28 29 28 26 15 12 14
7 5 9 10 13 12 21 29 32 26 18 23 18 18 22 27 22 25 14 5 11 13 12 9 6 4 24 11 7 10 31 32 32 34 26 30 47 35 31 29 26 21 11 12 14
Wind_Direction
3 1 359 357 356 352 348 347 343 339 342 338 341 337 337 336 326 41 42 242 283 311 329 276 43 1 67 87 82 130 63 175 197 158 235 165 139 12 64 116 75 266 176 226 140
359 357 355 352 350 350 347 345 341 333 332 334 334 337 334 338 47 62 189 308 302 312 32 55 10 349 58 67 39 80 106 218 184 202 222 178 165 163 150 151 235 308 57 109 122
354 352 352 350 346 344 343 342 336 329 326 330 328 327 328 324 344 183 89 322 319 256 98 70 24 32 62 47 24 147 168 215 238 229 199 182 154 163 139 220 206 195 176 165 145
351 348 347 349 344 341 339 338 335 325 320 322 321 316 320 134 250 144 354 338 348 150 116 48 26 36 61 41 18 25 6 210 236 235 171 227 114 223 198 202 312 188 165 156 166
348 346 344 343 342 339 335 334 333 325 318 314 312 309 262 347 247 355 354 0 46 56 54 66 63 64 48 317 15 101 331 293 276 280 250 111 231 234 238 203 113 135 154 173 177
338 340 339 336 338 336 332 329 329 325 320 308 302 318 131 231 126 20 350 84 54 62 37 37 109 137 98 14 87 127 254 252 238 244 250 201 264 339 238 132 138 158 176 179 178
335 335 335 336 337 334 329 324 325 319 316 301 298 332 132 236 70 22 75 101 48 78 111 47 116 98 122 68 321 22 328 319 207 206 253 164 278 238 144 148 164 183 185 187 197
332 333 335 335 335 332 327 320 319 311 304 177 123 57 245 351 251 58 96 75 67 47 98 131 102 106 78 182 15 30 56 4 220 151 283 138 268 260 169 162 196 200 198 201 207
326 329 332 334 333 330 324 315 311 303 104 139 118 125 270 328 325 74 14 127 78 62 59 99 72 94 46 75 7 8 270 272 312 195 136 171 267 252 165 194 214 212 206 207 209
320 325 329 332 330 329 324 307 291 73 43 233 30 42 273 217 142 90 11 99 103 97 57 47 52 71 48 89 244 243 265 252 241 209 201 217 263 265 200 200 224 218 212 211 209
314 322 327 328 328 326 339 353 12 351 23 205 208 231 167 25 49 107 118 93 79 86 186 6 97 205 219 196 181 180 201 236 243 243 236 236 248 271 251 219 237 222 209 215 215
311 316 324 322 322 322 334 63 91 161 310 266 253 278 244 174 286 232 124 161 156 204 122 43 237 211 131 140 170 185 235 260 284 299 189 264 254 264 262 246 227 226 216 216 206
308 314 317 317 315 21 6 49 316 246 221 292 216 223 210 137 215 241 147 155 171 180 192 174 214 114 145 162 181 220 197 237 236 328 248 306 261 233 273 262 246 230 223 215 207
307 307 314 321 61 318 40 320 327 313 43 270 237 280 81 137 260 160 191 148 185 204 159 234 210 175 173 215 156 245 208 237 273 23 249 22 292 246 246 288 240 227 211 213 204
279 301 305 20 296 338 269 307 307 65 305 259 198 190 124 166 108 302 343 83 190 186 134 241 170 173 189 214 166 227 132 156 103 212 6 234 268 253 26 267 268 262 228 217 204
247 275 304 147 2 269 306 332 46 47 245 280 156 179 143 186 194 111 118 52 63 134 286 251 324 178 207 86 155 127 90 69 62 78 277 227 192 217 185 211 251 255 234 211 203
220 238 163 142 246 207 350 41 34 191 283 232 210 184 188 190 206 174 169 180 177 141 222 273 211 176 152 112 40 93 67 319 326 351 244 142 213 254 235 235 228 257 260 220 195
201 213 196 229 143 122 40 62 219 213 214 55 97 69 194 157 246 183 154 217 236 112 118 188 278 179 176 194 180 174 171 169 232 232 285 250 245 264 231 261 250 240 255 236 195
142 137 175 197 161 78 89 214 207 178 200 167 107 173 233 234 210 151 209 216 214 169 185 175 265 97 49 90 113 180 193 170 83 124 335 232 271 282 266 268 264 259 240 237 199
164 202 192 160 153 140 124 232 214 198 151 157 201 182 206 200 173 182 180 192 220 195 148 236 289 63 101 109 30 175 170 83 5 261 265 263 275 252 242 250 245 243 233 240 196
155 221 220 142 127 197 223 227 207 212 179 177 215 246 216 192 195 207 219 232 207 163 155 143 145 250 129 205 173 143 218 85 157 162 204 285 271 207 213 212 229 230 227 220 202
166 216 177 155 179 204 232 196 186 211 206 256 216 220 217 186 211 220 212 214 158 153 161 192 157 233 237 360 342 281 204 174 193 228 232 129 270 233 180 189 223 228 232 222 205
204 181 192 203 202 212 223 255 232 197 195 212 227 192 196 209 241 195 232 186 152 155 168 177 215 259 284 52 6 220 199 223 308 129 206 184 259 110 200 226 232 224 227 221 199
153 183 177 219 228 210 214 236 238 226 239 239 241 201 167 237 229 260 227 196 187 194 345 165 179 193 232 230 129 185 218 217 220 243 232 233 261 269 263 273 277 265 230 216 202
184 183 186 192 218 221 203 233 238 234 222 208 242 233 231 246 245 237 253 252 13 207 122 174 236 225 245 256 177 207 241 211 212 235 230 254 245 256 261 262 269 277 241 200 195
223 164 187 225 195 207 215 223 241 242 168 221 235 239 229 239 235 254 242 192 219 354 194 196 242 253 258 257 194 244 254 233 224 243 249 258 263 260 274 277 278 275 265 215 203
230 199 198 195 217 200 211 223 231 236 239 241 236 238 237 238 241 253 269 239 234 223 194 172 185 186 250 254 124 260 243 238 251 249 233 246 254 278 272 265 265 269 217 217 210